Location: *
(46.4833°N, 7.6667°E)
Time: 14:01:37
(UTC+00:00)

COSMOS 2487 - Pass Details

Date: 27 February 2020
Orbit: 442 x 445 km, 74.7° (Epoch: 08 April)

Event Time Altitude Azimuth Distance (km) Brightness Sun altitude
Rises 18:35:30 0° 331° (NNW) 2,446 6.6 -15.2°
Reaches altitude 10° 18:37:42 10° 322° (NW) 1,571 5.7 -15.6°
Maximum altitude 18:40:50 33° 256° (WSW) 763 4.2 -16.1°
Drops below altitude 10° 18:43:57 10° 190° (S) 1,558 5.2 -16.7°
Sets 18:46:08 0° 181° (S) 2,423 6.1 -17.0°
